Location: Ferma
(41.9500°N, 44.5167°E)
Time: 11:59:42
(UTC+00:00)

Cosmos 220 Rocket - Pass Details

Date: 05 June 2022
Orbit: 572 x 614 km, 74.0° (Epoch: 03 July)

Event Time Altitude Azimuth Distance (km) Brightness Sun altitude
Exits shadow 19:11:45 34° 220° (SW) 960 4.8 -20.7°
Maximum altitude 19:13:26 65° 291° (WNW) 631 4.2 -20.9°
Drops below altitude 10° 19:17:37 10° 14° (NNE) 1,890 7.2 -21.2°
Sets 19:19:52 0° 17° (NNE) 2,797 8.2 -21.4°
